Location: Heidgraben
(53.7081°N, 9.6576°E)
Time: 08:26:31
(UTC+00:00)

ATLAS 5 CENTAUR R/B - Pass Details

Date: 05 July 2020
Orbit: 534 x 1124 km, 63.4° (Epoch: 09 August)

Event Time Altitude Azimuth Distance (km) Brightness Sun altitude
Rises 21:06:30 0° 224° (SW) 2,736 4.7 -7.9°
Reaches altitude 10° 21:08:35 10° 224° (SW) 1,887 3.9 -8.0°
Maximum altitude 21:12:48 84° 137° (SE) 637 1.6 -8.4°
Drops below altitude 10° 21:17:41 10° 49° (NE) 2,177 4.5 -8.7°
Sets 21:20:15 0° 49° (NE) 3,198 5.4 -8.9°
